Terminal Aerodrome Forecast
Issued by NWS

Home | Current Version | Previous Version | Text Only | Print | Product List | Glossary On
Versions: 1 2 3 4 5 6 7 8 9 10 11 12 13
348
FTUS44 KCRP 192334
TAFLRD
TAF
KLRD 192334Z 2000/2024 13008KT P6SM BKN035
     FM200100 VRB06KT 4SM SHRA BR VCTS BKN035CB
      TEMPO 2001/2004 VRB35G45KT 3/4SM TS BR BKN035CB
     FM200500 VRB06KT P6SM VCSH BKN040
     FM201000 33010KT P6SM BKN025
     FM201600 33015KT P6SM SCT080=

USA.gov is the U.S. government's official web portal to all federal, state and local government web resources and services.